Location: Briarstone Lake
(43.1454°N, 93.2359°W)
Time: 08:35:16
(UTC+00:00)

BlueWalker 3 - Pass Details

Date: 30 January 2026
Orbit: 450 x 461 km, 53.2° (Epoch: 11 February)

Event Time Altitude Azimuth Distance (km) Brightness Sun altitude
Rises 01:19:52 0° 301° (WNW) 2,458 6.3 -21.7°
Reaches altitude 10° 01:22:36 10° 324° (NW) 1,585 4.9 -22.2°
Enters shadow 01:24:12 16° 349° (N) 1,285 4.1 -22.5°
